Regional Weather Roundup
Issued by NWS Goodland, KS

Home | Current Version | Previous Version | Text Only | Print | Product List | Glossary Off
Versions: 1 2 3 4 5 6 7 8 9 10 11 12 13 14 15 16 17 18 19 20 21 22 23 24 25 26 27 28 29 30 31 32 33 34 35 36 37 38 39 40 41 42 43 44 45 46 47 48 49 50

000
ASUS43 KGLD 270559
RWRGLD

GOODLAND FORECAST AREA HOURLY WEATHER ROUNDUP
NATIONAL WEATHER SERVICE GOODLAND KS
1100 PM MST WED NOV 26 2014

...OFFICIAL OBSERVATIONS...

CITY           SKY/WX    TMP DP  RH WIND       PRES   REMARKS
GOODLAND KS    PTCLDY    26  23  88 S9        30.35R
HILL CITY KS   CLOUDY    33  19  56 S3        30.41S
IMPERIAL NEB   MOCLDY    28  26  92 SE3       30.35R
MCCOOK NEB     CLOUDY    30  20  66 CALM      30.38R
AKRON CO       PTCLDY    22  20  92 S13       30.27F WCI  10
BURLINGTON CO  PTCLDY    22  18  85 S12       30.33S WCI  10
LIMON CO       CLEAR     28  20  71 VRB7      30.31R
$$

...UNOFFICIAL OBSERVATIONS...

CITY           SKY/WX    TMP DP  RH WIND       PRES   REMARKS
COLBY KS       CLEAR     30  28  93 S3        30.38R
GOVE KS          N/A     31  32 100 MISG        N/A
NORTON KS      PTCLDY    25  16  68 CALM      30.39R
TRENTON NEB      N/A     31  32 100 CALM        N/A
$$



USA.gov is the U.S. government's official web portal to all federal, state and local government web resources and services.